This is the latest recevied weather packets stored in our database for station/object KD2DXJ. If no packets are shown the sender has not sent any weather packets the latest 10 day(s).
| Time | Temp. | Humidity | Pressure | Rain* | Wind** | Luminosity | Snow |
|---|---|---|---|---|---|---|---|
| 1777732626 | 6.11° C | 81% | 1012.6 hPa | 0 mm | - | 285 W/m² | - |
| 1777732324 | 5.56° C | 84% | 1012.6 hPa | 0 mm | - | 236 W/m² | - |
| 1777732021 | 5.56° C | 88% | 1012.6 hPa | 0 mm | - | 161 W/m² | - |
| 1777731718 | 5° C | 86% | 1012.6 hPa | 0 mm | - | 145 W/m² | - |
| 1777731415 | 5° C | 88% | 1012.7 hPa | 0 mm | - | 140 W/m² | - |
| 1777731113 | 5° C | 90% | 1012.6 hPa | 0 mm | - | 158 W/m² | - |
| 1777730811 | 5° C | 92% | 1012.7 hPa | 0 mm | - | 129 W/m² | - |
| 1777730508 | 5° C | 91% | 1012.5 hPa | 0 mm | - | 127 W/m² | - |
| 1777730203 | 5° C | 93% | 1012.5 hPa | 0 mm | - | 139 W/m² | - |
| 1777729900 | 5° C | 93% | 1012.7 hPa | 0 mm | - | 172 W/m² | - |
| 1777729597 | 5° C | 94% | 1012.7 hPa | 0 mm | - | 146 W/m² | - |
| 1777729294 | 4.44° C | 96% | 1012.6 hPa | 0 mm | - | 158 W/m² | - |
| 1777728990 | 4.44° C | 96% | 1012.6 hPa | 0 mm | - | 140 W/m² | - |
| 1777728687 | 4.44° C | 97% | 1012.7 hPa | 0 mm | - | 101 W/m² | - |
| 1777728384 | 3.89° C | 96% | 1012.6 hPa | 0 mm | - | 125 W/m² | - |
| 1777728081 | 3.89° C | 97% | 1012.5 hPa | 1.27 mm | - | 131 W/m² | - |
| 1777727778 | 3.89° C | 97% | 1012.7 hPa | 1.27 mm | - | 101 W/m² | - |
| 1777727475 | 4.44° C | 97% | 1012.6 hPa | 0 mm | - | 39 W/m² | - |
| 1777727173 | 4.44° C | 98% | 1012.6 hPa | 0 mm | - | 49 W/m² | - |
| 1777726870 | 4.44° C | 98% | 1012.6 hPa | 0 mm | - | 54 W/m² | - |
| 1777726566 | 4.44° C | 98% | 1012.6 hPa | 0 mm | - | 57 W/m² | - |
| 1777726264 | 4.44° C | 98% | 1012.5 hPa | 0 mm | - | 17 W/m² | - |
| 1777725960 | 4.44° C | 98% | 1012.7 hPa | 0 mm | - | 25 W/m² | - |
| 1777725657 | 4.44° C | 98% | 1012.5 hPa | 0 mm | - | 37 W/m² | - |
| 1777725356 | 4.44° C | 97% | 1012.5 hPa | 1.27 mm | - | 43 W/m² | - |
* Rain latest hour (hover to see other rain measurements)
** Current wind speed in m/s (hover to see current wind gust speed)